When you browse on this site, cookies collect data to enhance your experience and personalize the content and advertising you see.
Visit our Privacy Policy to learn more. By continuing to use the site, you agree to this use of cookies and data.
  • Em Portugal
  • Lista de países
  • Para 7 dias
  • Temperatura da água
  • Mapas de satélite
  • Mapa do tempo
  • Widgets de tempo
  • user-avatar
    Iniciar Sessão

    Previsão horária em Kranevo

    Hoje, 22 Novembro, Quinta-feira

    Tempo Temperatura Precipitação Vento Pressão Humidade
    00:00 +6°C° 0.7 mm 9 m/s 758 mmHg 90%
    01:00 +5°C° 0.7 mm 9 m/s 758 mmHg 89%
    02:00 +3°C° 0 mm 10 m/s 758 mmHg 89%
    03:00 +3°C° 0.6 mm 9 m/s 758 mmHg 88%
    04:00 +3°C° 0.6 mm 9 m/s 759 mmHg 87%
    05:00 +3°C° 0.6 mm 9 m/s 759 mmHg 87%
    06:00 +4°C° 0.3 mm 8 m/s 759 mmHg 86%
    07:00 +4°C° 0.3 mm 8 m/s 760 mmHg 86%
    08:00 +4°C° 0.3 mm 8 m/s 760 mmHg 86%
    09:00 +4°C° 0.1 mm 8 m/s 761 mmHg 84%
    10:00 +2°C° 0.1 mm 8 m/s 761 mmHg 83%
    11:00 +3°C° 0.1 mm 7 m/s 761 mmHg 82%
    12:00 +3°C° 0 mm 7 m/s 761 mmHg 79%
    13:00 +4°C° 0 mm 7 m/s 762 mmHg 76%
    14:00 +4°C° 0 mm 7 m/s 762 mmHg 74%
    15:00 +3°C° 0 mm 6 m/s 762 mmHg 72%
    16:00 +3°C° 0 mm 6 m/s 762 mmHg 71%
    17:00 +3°C° 0 mm 6 m/s 762 mmHg 70%
    18:00 +2°C° 0 mm 6 m/s 763 mmHg 69%
    19:00 +2°C° 0 mm 5 m/s 763 mmHg 68%
    20:00 +2°C° 0 mm 5 m/s 763 mmHg 67%
    21:00 +1°C° 0 mm 5 m/s 763 mmHg 69%
    22:00 +1°C° 0 mm 5 m/s 763 mmHg 71%
    23:00 0°C° 0 mm 5 m/s 764 mmHg 73%

    Amanhã, 23 Novembro, Sexta-feira

    Tempo Temperatura Precipitação Vento Pressão Humidade
    00:00 0°C° 0 mm 4 m/s 764 mmHg 75%
    01:00 -1°C° 0 mm 4 m/s 764 mmHg 77%
    02:00 -1°C° 0 mm 4 m/s 764 mmHg 78%
    03:00 -1°C° 0 mm 4 m/s 764 mmHg 78%
    04:00 -2°C° 0 mm 4 m/s 764 mmHg 79%
    05:00 -2°C° 0 mm 4 m/s 765 mmHg 79%
    06:00 -2°C° 0 mm 4 m/s 765 mmHg 78%
    07:00 -2°C° 0 mm 4 m/s 765 mmHg 76%
    08:00 -2°C° 0 mm 4 m/s 765 mmHg 75%
    09:00 -1°C° 0 mm 4 m/s 766 mmHg 68%
    10:00 0°C° 0 mm 4 m/s 766 mmHg 61%
    11:00 +3°C° 0 mm 4 m/s 766 mmHg 54%
    12:00 +3°C° 0 mm 4 m/s 766 mmHg 52%
    13:00 +4°C° 0 mm 4 m/s 766 mmHg 50%
    14:00 +4°C° 0 mm 4 m/s 766 mmHg 48%
    15:00 +3°C° 0 mm 4 m/s 766 mmHg 52%
    16:00 +3°C° 0 mm 4 m/s 766 mmHg 56%
    17:00 +2°C° 0 mm 3 m/s 766 mmHg 60%
    18:00 +1°C° 0 mm 3 m/s 767 mmHg 62%
    19:00 +1°C° 0 mm 3 m/s 767 mmHg 63%
    20:00 0°C° 0 mm 3 m/s 767 mmHg 65%
    21:00 0°C° 0 mm 3 m/s 767 mmHg 65%
    22:00 0°C° 0 mm 3 m/s 767 mmHg 65%
    23:00 +1°C° 0 mm 2 m/s 767 mmHg 65%

    Depois de amanhã, 24 Novembro, Sábado

    Tempo Temperatura Precipitação Vento Pressão Humidade
    00:00 +1°C° 0 mm 2 m/s 767 mmHg 65%
    01:00 +1°C° 0 mm 2 m/s 767 mmHg 64%
    02:00 +1°C° 0 mm 2 m/s 767 mmHg 64%
    03:00 +1°C° 0 mm 2 m/s 766 mmHg 64%
    04:00 +1°C° 0 mm 2 m/s 766 mmHg 64%
    05:00 +1°C° 0 mm 2 m/s 766 mmHg 64%
    06:00 +1°C° 0 mm 2 m/s 766 mmHg 64%
    07:00 +1°C° 0 mm 2 m/s 766 mmHg 64%
    08:00 +2°C° 0 mm 2 m/s 766 mmHg 64%
    09:00 +3°C° 0 mm 2 m/s 765 mmHg 62%
    10:00 +5°C° 0 mm 2 m/s 765 mmHg 61%
    11:00 +6°C° 0 mm 2 m/s 765 mmHg 59%
    12:00 +7°C° 0 mm 2 m/s 764 mmHg 60%
    13:00 +8°C° 0 mm 2 m/s 764 mmHg 61%
    14:00 +9°C° 0 mm 1 m/s 763 mmHg 62%
    15:00 +8°C° 0 mm 1 m/s 763 mmHg 68%
    16:00 +7°C° 0 mm 1 m/s 762 mmHg 75%
    17:00 +6°C° 0 mm 1 m/s 762 mmHg 81%
    18:00 +5°C° 0 mm 2 m/s 762 mmHg 83%
    19:00 +5°C° 0 mm 2 m/s 762 mmHg 86%
    20:00 +5°C° 0 mm 2 m/s 762 mmHg 88%
    21:00 +5°C° 0 mm 2 m/s 761 mmHg 88%
    22:00 +5°C° 0 mm 2 m/s 761 mmHg 89%
    23:00 +4°C° 0 mm 3 m/s 761 mmHg 90%

    25 Novembro, Domingo

    Tempo Temperatura Precipitação Vento Pressão Humidade
    00:00 +4°C° 0 mm 3 m/s 761 mmHg 89%
    01:00 +4°C° 0 mm 3 m/s 760 mmHg 89%
    02:00 +4°C° 0 mm 3 m/s 760 mmHg 89%
    03:00 +4°C° 0 mm 3 m/s 759 mmHg 88%
    04:00 +4°C° 0 mm 3 m/s 759 mmHg 87%
    05:00 +4°C° 0 mm 3 m/s 759 mmHg 86%
    06:00 +4°C° 0 mm 3 m/s 759 mmHg 85%
    07:00 +4°C° 0 mm 3 m/s 759 mmHg 83%
    08:00 +4°C° 0 mm 3 m/s 758 mmHg 82%
    09:00 +5°C° 0 mm 3 m/s 758 mmHg 75%
    10:00 +8°C° 0 mm 3 m/s 758 mmHg 69%
    11:00 +9°C° 0 mm 3 m/s 758 mmHg 62%
    12:00 +10°C° 0 mm 3 m/s 757 mmHg 60%
    13:00 +11°C° 0 mm 3 m/s 757 mmHg 57%
    14:00 +12°C° 0 mm 3 m/s 756 mmHg 54%
    15:00 +12°C° 0 mm 2 m/s 756 mmHg 58%
    16:00 +10°C° 0 mm 2 m/s 756 mmHg 63%
    17:00 +9°C° 0 mm 2 m/s 756 mmHg 67%
    18:00 +9°C° 0 mm 2 m/s 756 mmHg 69%
    19:00 +8°C° 0 mm 2 m/s 756 mmHg 72%
    20:00 +8°C° 0 mm 2 m/s 756 mmHg 74%
    21:00 +8°C° 0 mm 2 m/s 755 mmHg 76%
    22:00 +8°C° 0 mm 2 m/s 755 mmHg 78%
    23:00 +8°C° 0 mm 2 m/s 755 mmHg 80%

    26 Novembro, Segunda-feira

    Tempo Temperatura Precipitação Vento Pressão Humidade
    00:00 +8°C° 0 mm 2 m/s 755 mmHg 82%
    01:00 +8°C° 0 mm 3 m/s 754 mmHg 83%
    02:00 +7°C° 0 mm 3 m/s 754 mmHg 85%
    03:00 +7°C° 0 mm 3 m/s 753 mmHg 87%
    04:00 +8°C° 0 mm 3 m/s 753 mmHg 89%
    05:00 +8°C° 0 mm 3 m/s 753 mmHg 91%
    06:00 +7°C° 0 mm 4 m/s 752 mmHg 92%
    07:00 +7°C° 0 mm 4 m/s 752 mmHg 92%
    08:00 +8°C° 0 mm 5 m/s 752 mmHg 93%
    09:00 +9°C° 0.1 mm 5 m/s 751 mmHg 90%
    10:00 +10°C° 0.1 mm 6 m/s 751 mmHg 87%
    11:00 +11°C° 0.1 mm 6 m/s 751 mmHg 84%
    12:00 +11°C° 0.5 mm 6 m/s 751 mmHg 85%
    13:00 +11°C° 0.5 mm 7 m/s 750 mmHg 86%
    14:00 +11°C° 0.5 mm 7 m/s 749 mmHg 88%
    15:00 +11°C° 0.3 mm 7 m/s 749 mmHg 89%
    16:00 +11°C° 0.3 mm 6 m/s 749 mmHg 90%
    17:00 +11°C° 0.3 mm 6 m/s 748 mmHg 91%
    18:00 +11°C° 0.2 mm 6 m/s 748 mmHg 91%
    19:00 +13°C° 0.2 mm 6 m/s 748 mmHg 92%
    20:00 +13°C° 0.2 mm 6 m/s 748 mmHg 92%
    21:00 +13°C° 0.1 mm 6 m/s 748 mmHg 93%
    22:00 +12°C° 0.1 mm 5 m/s 748 mmHg 93%
    23:00 +12°C° 0.1 mm 5 m/s 748 mmHg 94%

    27 Novembro, Terça-feira

    Tempo Temperatura Precipitação Vento Pressão Humidade
    00:00 +12°C° 0.1 mm 4 m/s 748 mmHg 94%
    01:00 +11°C° 0.1 mm 4 m/s 748 mmHg 94%
    02:00 +10°C° 0.1 mm 3 m/s 747 mmHg 94%
    03:00 +10°C° 0 mm 3 m/s 748 mmHg 94%
    04:00 +9°C° 0 mm 3 m/s 748 mmHg 94%
    05:00 +9°C° 0 mm 2 m/s 748 mmHg 93%
    06:00 +9°C° 0 mm 2 m/s 748 mmHg 93%
    07:00 +9°C° 0 mm 2 m/s 748 mmHg 94%
    08:00 +9°C° 0 mm 2 m/s 748 mmHg 94%
    09:00 +10°C° 0 mm 2 m/s 749 mmHg 89%
    10:00 +12°C° 0 mm 2 m/s 749 mmHg 85%
    11:00 +13°C° 0 mm 2 m/s 749 mmHg 81%
    12:00 +13°C° 0 mm 2 m/s 749 mmHg 80%
    13:00 +13°C° 0 mm 3 m/s 749 mmHg 80%
    14:00 +13°C° 0 mm 3 m/s 748 mmHg 79%
    15:00 +12°C° 0.4 mm 4 m/s 749 mmHg 83%
    16:00 +12°C° 0.4 mm 4 m/s 749 mmHg 87%
    17:00 +11°C° 0.4 mm 4 m/s 749 mmHg 90%
    18:00 +11°C° 0.7 mm 4 m/s 749 mmHg 92%
    19:00 +10°C° 0.7 mm 4 m/s 750 mmHg 93%
    20:00 +10°C° 0.7 mm 4 m/s 750 mmHg 94%
    21:00 +10°C° 0.6 mm 4 m/s 750 mmHg 93%
    22:00 +8°C° 0.6 mm 5 m/s 751 mmHg 92%
    23:00 +8°C° 0.6 mm 5 m/s 751 mmHg 91%
    Mostrar mais